Weather History for South Lake Tahoe, CA

Change the Weather History Date:

Monday, June 3, 2013

  Actual Average Record
Temperature  
Mean Temperature 61 °F 52 °F  
Max Temperature 79 °F 69 °F 80 °F (2003)
Min Temperature 42 °F 35 °F 27 °F (1944)
Degree Days  
Heating Degree Days 4 13  
Month to date heating degree days 18 40  
Since 1 June heating degree days 18 40  
Since 1 July heating degree days 6881 7462  
Cooling Degree Days 0 0  
Month to date cooling degree days 0 0  
Year to date cooling degree days 0 0  
Since 1 June cooling degree days 0 0  
Growing Degree Days 10 (Base 50)    
Moisture  
Dew Point 36 °F    
Average Humidity 49    
Maximum Humidity 82    
Minimum Humidity 16    
Precipitation  
Precipitation 0.00 in - 0.29 in (1989)
Month to date precipitation 0.00  
Year to date precipitation 4.75  
Sea Level Pressure  
Sea Level Pressure 29.90 in    
Wind  
Wind Speed 3 mph (NNE)    
Max Wind Speed 13 mph    
Max Gust Speed 26 mph    
Visibility 10 miles    
Events      
T = Trace of Precipitation, MM = Missing Value Source: NWS Daily Summary

Daily Weather History Graph

Daily Weather History Graph

Search for Another Location

Airport:

Trip Planner

Search our weather history database for the weather conditions in past years. The results will help you decide how hot, cold, wet, or windy it might be!

Date:

Astronomy

Jun. 03, 2013 Rise Set
Actual Time 5:35 AM PDT 8:21 PM PDT
Civil Twilight 5:04 AM PDT 8:52 PM PDT
Nautical Twilight 4:24 AM PDT 9:32 PM PDT
Astronomical Twilight 3:39 AM PDT 10:17 PM PDT
Moon 2:33 AM PDT (6/3) 3:58 PM PDT (6/3)
Length of Visible Light 15h 48m
Length of Day
14h 45m
Waning Crescent, 21% of the Moon is Illuminated
Jun 3
Waning Crescent
Jun 8
New
Jun 16
First Quarter
Jun 23
Full
Jun 29
Last Quarter

Hourly Weather History & Observations

Time (PDT) Temp. Windchill Dew Point Humidity Pressure Visibility Wind Dir Wind Speed Gust Speed Precip Events Conditions
12:53 AM 48.9 °F - 39.9 °F 71% 29.86 in 10.0 mi South 4.6 mph - N/A   Clear
1:53 AM 46.9 °F - 39.0 °F 74% 29.86 in 10.0 mi Variable 3.5 mph - N/A   Clear
2:53 AM 46.0 °F - 39.0 °F 76% 29.87 in 10.0 mi Calm Calm - N/A   Clear
3:53 AM 45.0 °F - 37.9 °F 76% 29.87 in 10.0 mi Calm Calm - N/A   Clear
4:53 AM 43.0 °F - 37.9 °F 82% 29.88 in 10.0 mi Calm Calm - N/A   Clear
5:53 AM 42.1 °F - 36.0 °F 79% 29.90 in 10.0 mi Calm Calm - N/A   Clear
6:53 AM 45.0 °F 43.5 °F 37.9 °F 76% 29.92 in 10.0 mi SSW 3.5 mph - N/A   Clear
7:53 AM 55.0 °F - 41.0 °F 59% 29.92 in 10.0 mi South 3.5 mph - N/A   Clear
8:53 AM 64.9 °F - 33.1 °F 31% 29.91 in 10.0 mi Calm Calm - N/A   Clear
9:53 AM 66.9 °F - 30.9 °F 26% 29.91 in 10.0 mi Variable 3.5 mph - N/A   Clear
10:53 AM 70.0 °F - 30.0 °F 23% 29.91 in 10.0 mi Calm Calm - N/A   Clear
11:53 AM 72.0 °F - 30.0 °F 21% 29.90 in 10.0 mi North 6.9 mph - N/A   Clear
12:53 PM 73.0 °F - 30.9 °F 21% 29.91 in 10.0 mi NNE 9.2 mph - N/A   Clear
1:53 PM 73.0 °F - 30.0 °F 20% 29.90 in 10.0 mi NNE 6.9 mph - N/A   Clear
2:53 PM 73.9 °F - 30.9 °F 21% 29.90 in 10.0 mi NNE 8.1 mph 16.1 mph N/A   Clear
3:53 PM 75.9 °F - 30.9 °F 19% 29.88 in 10.0 mi NNE 6.9 mph - N/A   Clear
4:53 PM 78.1 °F - 28.9 °F 17% 29.87 in 10.0 mi NE 8.1 mph - N/A   Clear
5:53 PM 77.0 °F - 28.9 °F 17% 29.88 in 10.0 mi NNE 6.9 mph - N/A   Clear
6:53 PM 73.0 °F - 33.1 °F 23% 29.89 in 10.0 mi North 3.5 mph - N/A   Clear
7:53 PM 68.0 °F - 43.0 °F 40% 29.89 in 10.0 mi Calm Calm - N/A   Clear
8:53 PM 63.0 °F - 42.1 °F 46% 29.89 in 10.0 mi Calm Calm - N/A   Clear
9:53 PM 60.1 °F - 43.0 °F 53% 29.91 in 10.0 mi Calm Calm - N/A   Clear
10:53 PM 57.0 °F - 45.0 °F 64% 29.92 in 10.0 mi Calm Calm - N/A   Clear
11:53 PM 54.0 °F - 45.0 °F 72% 29.94 in 10.0 mi Calm Calm - N/A   Clear